La Espada — WDI7035 — position and weather

sailwx.info

Track history (hours):
 
Tides and Currents Weather Stations Pressure Air Temp Water Temp Dewpoint Dewpoint Depression Visibility Wind Speed Wind Dir Waves Ship Positions

La Espada

Owner: Harbor Breeze Cruises, Inc., Rancho Palos Verdes, CA. More information available from US FCC via Universal Licensing System and Coast Guard Vessel Documentation Center.

Last reported at 2017-Sep-25 02:25 UTC. Time now 2017-Sep-25 15:16 UTC.
Position N 33°46' W 118°12'.

Length 25 m.

MMSI: 367724740.

Date/timePositionNaut miles runAvg speedWind from/ knotsBaromVisibWave heightAir tempDewpointWater temp
2017-Sep-25 02:25N 33°46' W 118°12'0 0.0
2017-Sep-25 02:00N 33°46' W 118°12'1 1.1
2017-Sep-25 01:31N 33°45' W 118°11'816.8
2017-Sep-25 01:00N 33°39' W 118°05'918.4
2017-Sep-25 00:30N 33°32' W 117°58'4 8.7
2017-Sep-25 00:00N 33°31' W 118°03'611.2
2017-Sep-24 23:30N 33°36' W 118°07'917.7
2017-Sep-24 23:01N 33°44' W 118°11'2 3.6
2017-Sep-24 22:30N 33°46' W 118°12'2 3.6
2017-Sep-24 22:00N 33°44' W 118°10'714.9
2017-Sep-24 21:31N 33°39' W 118°04'815.1
2017-Sep-24 21:00N 33°33' W 117°59'2 4.8
2017-Sep-24 20:30N 33°33' W 118°02'5 9.4
2017-Sep-24 20:00N 33°36' W 118°05'918.0
2017-Sep-24 19:30N 33°44' W 118°11'2 3.6
2017-Sep-24 19:00N 33°46' W 118°12'1 1.5
2017-Sep-24 18:30N 33°45' W 118°11'918.8
2017-Sep-24 18:00N 33°36' W 118°14'1019.7
2017-Sep-24 17:30N 33°27' W 118°19'5 8.9
2017-Sep-24 17:00N 33°24' W 118°22'0 0.0
2017-Sep-24 16:30N 33°24' W 118°22'510.6
2017-Sep-24 16:00N 33°28' W 118°20'714.2
2017-Sep-24 15:31N 33°35' W 118°16'714.5
2017-Sep-24 15:00N 33°41' W 118°12'4 0.4
2017-Sep-24 03:15N 33°46' W 118°12'0 0.0
2017-Sep-24 03:00N 33°46' W 118°12'0 0.0
2017-Sep-24 02:30N 33°46' W 118°12'0 0.0
2017-Sep-24 02:00N 33°46' W 118°12'5 9.4
2017-Sep-24 01:30N 33°43' W 118°07'917.6
2017-Sep-24 01:00N 33°37' W 117°59'6 7.2
2017-Sep-24 00:11N 33°32' W 117°55'313.5
2017-Sep-23 23:59N 33°33' W 117°58'817.2
2017-Sep-23 23:30N 33°38' W 118°06'815.7
2017-Sep-23 23:00N 33°45' W 118°11'1 1.8
2017-Sep-23 22:30N 33°46' W 118°12'714.3
2017-Sep-23 22:00N 33°41' W 118°05'1217.3
2017-Sep-23 21:20N 33°32' W 117°57'1 3.7
2017-Sep-23 21:00N 33°31' W 117°57'3 5.2
2017-Sep-23 20:31N 33°32' W 117°60'917.3
2017-Sep-23 20:00N 33°38' W 118°08'9 0.2
2017-Sep-22 02:00N 33°43' W 118°16'1 2.0
2017-Sep-22 01:30N 33°44' W 118°17'0 0.0
2017-Sep-22 01:00N 33°44' W 118°17'0 0.0
2017-Sep-22 00:30N 33°44' W 118°17'0 0.0
2017-Sep-22 00:00N 33°44' W 118°17'0 0.0
2017-Sep-21 23:30N 33°44' W 118°17'0 0.0
2017-Sep-21 23:00N 33°44' W 118°17'0 0.0
2017-Sep-21 22:30N 33°44' W 118°17'1 2.3
2017-Sep-21 22:00N 33°46' W 118°17'2 3.1
2017-Sep-21 21:30N 33°44' W 118°16'0 0.3
2017-Sep-21 20:59N 33°44' W 118°16'1 1.2
2017-Sep-21 20:29N 33°44' W 118°17'0 0.0
2017-Sep-21 20:00N 33°44' W 118°17'3 5.7
2017-Sep-21 19:30N 33°43' W 118°14'3 6.3
2017-Sep-21 19:00N 33°46' W 118°12'2 3.0
2017-Sep-21 18:30N 33°46' W 118°13'2 3.9
2017-Sep-21 18:01N 33°44' W 118°12'2 3.0
2017-Sep-21 17:31N 33°46' W 118°12'0 0.0
2017-Sep-21 17:01N 33°46' W 118°12'0 0.0
2017-Sep-20 00:38N 33°46' W 118°12'0 0.0
2017-Sep-20 00:30N 33°46' W 118°12'0 0.0
2017-Sep-20 00:00N 33°46' W 118°12'0 0.0
2017-Sep-19 23:30N 33°46' W 118°12'2 4.4
2017-Sep-19 23:00N 33°44' W 118°11'4 8.0
2017-Sep-19 22:27N 33°45' W 118°17'2 3.4
2017-Sep-19 22:00N 33°46' W 118°16'3 5.7
2017-Sep-19 21:30N 33°43' W 118°16'3 5.8
2017-Sep-19 20:59N 33°46' W 118°16'0 0.0
2017-Sep-19 20:29N 33°46' W 118°16'0 0.8
2017-Sep-19 20:00N 33°46' W 118°16'1 3.0
2017-Sep-19 19:30N 33°44' W 118°17'1 2.9
2017-Sep-19 19:00N 33°46' W 118°16'1 3.0
2017-Sep-19 18:30N 33°44' W 118°17'0 0.0
2017-Sep-19 17:59N 33°44' W 118°17'0 0.0
2017-Sep-19 17:28N 33°44' W 118°17'3 6.0
2017-Sep-19 17:00N 33°43' W 118°14'3 6.3
2017-Sep-19 16:30N 33°46' W 118°12'0 0.0
2017-Sep-19 01:47N 33°46' W 118°12'0 0.0
2017-Sep-19 01:31N 33°46' W 118°12'0 0.0
2017-Sep-19 01:00N 33°46' W 118°12'0 0.0
2017-Sep-19 00:30N 33°46' W 118°12'0 0.0
2017-Sep-19 00:00N 33°46' W 118°12'1 1.4
2017-Sep-18 23:30N 33°45' W 118°11'4 8.9
2017-Sep-18 23:00N 33°43' W 118°16'2 4.7
2017-Sep-18 22:30N 33°45' W 118°16'2 3.9
2017-Sep-18 22:00N 33°46' W 118°14'2 4.1
2017-Sep-18 21:29N 33°44' W 118°13'1 3.1
2017-Sep-18 21:00N 33°46' W 118°12'3 5.7
2017-Sep-18 20:30N 33°43' W 118°13'3 5.5
2017-Sep-18 20:00N 33°44' W 118°17'0 0.0
2017-Sep-18 19:30N 33°44' W 118°17'4 8.4
2017-Sep-18 19:00N 33°44' W 118°11'2 3.9
2017-Sep-18 18:30N 33°46' W 118°12'0 0.0
2017-Sep-18 01:48N 33°46' W 118°12'1 4.4
2017-Sep-18 01:30N 33°45' W 118°11'713.5
2017-Sep-18 00:59N 33°42' W 118°19'714.3
2017-Sep-18 00:30N 33°45' W 118°26'916.4
2017-Sep-17 23:59N 33°39' W 118°18'4 8.2
2017-Sep-17 23:30N 33°38' W 118°14'714.1
2017-Sep-17 23:00N 33°44' W 118°11'2 2.7
2017-Sep-17 22:25N 33°46' W 118°12'0 1.1
2017-Sep-17 22:00N 33°45' W 118°11'917.1
2017-Sep-17 21:30N 33°37' W 118°09'713.9
2017-Sep-17 20:58N 33°30' W 118°04'3 6.2
2017-Sep-17 20:30N 33°33' W 118°06'5 8.7
2017-Sep-17 19:57N 33°36' W 118°10'817.4
2017-Sep-17 19:30N 33°44' W 118°11'2 3.8
2017-Sep-17 18:59N 33°46' W 118°12'0 0.0
2017-Sep-17 18:30N 33°46' W 118°12'4 7.9
2017-Sep-17 18:00N 33°42' W 118°11'8 3.1
2017-Sep-17 15:34N 33°35' W 118°16'618.2
2017-Sep-17 15:15N 33°40' W 118°13'518.1
2017-Sep-17 14:59N 33°45' W 118°11'1 0.1
2017-Sep-17 02:59N 33°46' W 118°12'0 0.0
2017-Sep-17 02:30N 33°46' W 118°12'0 0.0
2017-Sep-17 02:00N 33°46' W 118°12'3 5.8
2017-Sep-17 01:30N 33°43' W 118°11'1118.2
2017-Sep-17 00:54N 33°32' W 118°09'9 8.6
2017-Sep-16 23:52N 33°37' W 118°18'2 6.0
2017-Sep-16 23:30N 33°40' W 118°18'815.8
2017-Sep-16 23:00N 33°44' W 118°11'2 3.4
2017-Sep-16 22:30N 33°46' W 118°12'0 0.6
2017-Sep-16 22:01N 33°45' W 118°12'713.3
2017-Sep-16 21:30N 33°41' W 118°18'4 3.7
2017-Sep-16 20:30N 33°42' W 118°22'610.9
2017-Sep-16 19:55N 33°38' W 118°16'818.1
2017-Sep-16 19:31N 33°44' W 118°11'2 3.2
2017-Sep-16 19:00N 33°46' W 118°12'0 0.3
2017-Sep-16 18:30N 33°46' W 118°12'610.6
2017-Sep-16 17:58N 33°40' W 118°10'0 0.5
2017-Sep-16 17:30N 33°40' W 118°10'610.4
2017-Sep-16 16:59N 33°46' W 118°12'0 0.4
2017-Sep-16 16:30N 33°46' W 118°12'0 0.0
2017-Sep-15 22:49N 33°46' W 118°12'0 0.0
2017-Sep-15 22:30N 33°46' W 118°12'0 0.0
2017-Sep-15 22:00N 33°46' W 118°12'0 0.0
2017-Sep-15 21:30N 33°46' W 118°12'0 0.0
2017-Sep-15 21:00N 33°46' W 118°12'0 0.0
2017-Sep-15 20:30N 33°46' W 118°12'0 0.0
2017-Sep-15 20:00N 33°46' W 118°12'5 9.2
2017-Sep-15 19:30N 33°41' W 118°11'5 1.4
2017-Sep-15 15:40N 33°37' W 118°15'317.8
2017-Sep-15 15:30N 33°39' W 118°13'612.6
2017-Sep-15 14:59N 33°46' W 118°12'0 0.0
2017-Sep-15 14:30N 33°46' W 118°12'0 0.0
2017-Sep-15 14:01N 33°46' W 118°12'0 0.0
2017-Sep-15 02:46N 33°46' W 118°12'0 0.6
2017-Sep-15 02:29N 33°46' W 118°12'  
Track history (hours):
 
Tides and Currents Weather Stations Pressure Air Temp Water Temp Dewpoint Dewpoint Depression Visibility Wind Speed Wind Dir Waves Ship Positions

La Espada

Owner: Harbor Breeze Cruises, Inc., Rancho Palos Verdes, CA. More information available from US FCC via Universal Licensing System and Coast Guard Vessel Documentation Center.

Last reported at 2017-Sep-25 02:25 UTC. Time now 2017-Sep-25 15:16 UTC.
Position N 33°46' W 118°12'.

Length 25 m.

MMSI: 367724740.

Date/timePositionNaut miles runAvg speedWind from/ knotsBaromVisibWave heightAir tempDewpointWater temp
2017-Sep-25 02:25N 33°46' W 118°12'0 0.0
2017-Sep-25 02:00N 33°46' W 118°12'1 1.1
2017-Sep-25 01:31N 33°45' W 118°11'816.8
2017-Sep-25 01:00N 33°39' W 118°05'918.4
2017-Sep-25 00:30N 33°32' W 117°58'4 8.7
2017-Sep-25 00:00N 33°31' W 118°03'611.2
2017-Sep-24 23:30N 33°36' W 118°07'917.7
2017-Sep-24 23:01N 33°44' W 118°11'2 3.6
2017-Sep-24 22:30N 33°46' W 118°12'2 3.6
2017-Sep-24 22:00N 33°44' W 118°10'714.9
2017-Sep-24 21:31N 33°39' W 118°04'815.1
2017-Sep-24 21:00N 33°33' W 117°59'2 4.8
2017-Sep-24 20:30N 33°33' W 118°02'5 9.4
2017-Sep-24 20:00N 33°36' W 118°05'918.0
2017-Sep-24 19:30N 33°44' W 118°11'2 3.6
2017-Sep-24 19:00N 33°46' W 118°12'1 1.5
2017-Sep-24 18:30N 33°45' W 118°11'918.8
2017-Sep-24 18:00N 33°36' W 118°14'1019.7
2017-Sep-24 17:30N 33°27' W 118°19'5 8.9
2017-Sep-24 17:00N 33°24' W 118°22'0 0.0
2017-Sep-24 16:30N 33°24' W 118°22'510.6
2017-Sep-24 16:00N 33°28' W 118°20'714.2
2017-Sep-24 15:31N 33°35' W 118°16'714.5
2017-Sep-24 15:00N 33°41' W 118°12'4 0.4
2017-Sep-24 03:15N 33°46' W 118°12'0 0.0
2017-Sep-24 03:00N 33°46' W 118°12'0 0.0
2017-Sep-24 02:30N 33°46' W 118°12'0 0.0
2017-Sep-24 02:00N 33°46' W 118°12'5 9.4
2017-Sep-24 01:30N 33°43' W 118°07'917.6
2017-Sep-24 01:00N 33°37' W 117°59'6 7.2
2017-Sep-24 00:11N 33°32' W 117°55'313.5
2017-Sep-23 23:59N 33°33' W 117°58'817.2
2017-Sep-23 23:30N 33°38' W 118°06'815.7
2017-Sep-23 23:00N 33°45' W 118°11'1 1.8
2017-Sep-23 22:30N 33°46' W 118°12'714.3
2017-Sep-23 22:00N 33°41' W 118°05'1217.3
2017-Sep-23 21:20N 33°32' W 117°57'1 3.7
2017-Sep-23 21:00N 33°31' W 117°57'3 5.2
2017-Sep-23 20:31N 33°32' W 117°60'917.3
2017-Sep-23 20:00N 33°38' W 118°08'9 0.2
2017-Sep-22 02:00N 33°43' W 118°16'1 2.0
2017-Sep-22 01:30N 33°44' W 118°17'0 0.0
2017-Sep-22 01:00N 33°44' W 118°17'0 0.0
2017-Sep-22 00:30N 33°44' W 118°17'0 0.0
2017-Sep-22 00:00N 33°44' W 118°17'0 0.0
2017-Sep-21 23:30N 33°44' W 118°17'0 0.0
2017-Sep-21 23:00N 33°44' W 118°17'0 0.0
2017-Sep-21 22:30N 33°44' W 118°17'1 2.3
2017-Sep-21 22:00N 33°46' W 118°17'2 3.1
2017-Sep-21 21:30N 33°44' W 118°16'0 0.3
2017-Sep-21 20:59N 33°44' W 118°16'1 1.2
2017-Sep-21 20:29N 33°44' W 118°17'0 0.0
2017-Sep-21 20:00N 33°44' W 118°17'3 5.7
2017-Sep-21 19:30N 33°43' W 118°14'3 6.3
2017-Sep-21 19:00N 33°46' W 118°12'2 3.0
2017-Sep-21 18:30N 33°46' W 118°13'2 3.9
2017-Sep-21 18:01N 33°44' W 118°12'2 3.0
2017-Sep-21 17:31N 33°46' W 118°12'0 0.0
2017-Sep-21 17:01N 33°46' W 118°12'0 0.0
2017-Sep-20 00:38N 33°46' W 118°12'0 0.0
2017-Sep-20 00:30N 33°46' W 118°12'0 0.0
2017-Sep-20 00:00N 33°46' W 118°12'0 0.0
2017-Sep-19 23:30N 33°46' W 118°12'2 4.4
2017-Sep-19 23:00N 33°44' W 118°11'4 8.0
2017-Sep-19 22:27N 33°45' W 118°17'2 3.4
2017-Sep-19 22:00N 33°46' W 118°16'3 5.7
2017-Sep-19 21:30N 33°43' W 118°16'3 5.8
2017-Sep-19 20:59N 33°46' W 118°16'0 0.0
2017-Sep-19 20:29N 33°46' W 118°16'0 0.8
2017-Sep-19 20:00N 33°46' W 118°16'1 3.0
2017-Sep-19 19:30N 33°44' W 118°17'1 2.9
2017-Sep-19 19:00N 33°46' W 118°16'1 3.0
2017-Sep-19 18:30N 33°44' W 118°17'0 0.0
2017-Sep-19 17:59N 33°44' W 118°17'0 0.0
2017-Sep-19 17:28N 33°44' W 118°17'3 6.0
2017-Sep-19 17:00N 33°43' W 118°14'3 6.3
2017-Sep-19 16:30N 33°46' W 118°12'0 0.0
2017-Sep-19 01:47N 33°46' W 118°12'0 0.0
2017-Sep-19 01:31N 33°46' W 118°12'0 0.0
2017-Sep-19 01:00N 33°46' W 118°12'0 0.0
2017-Sep-19 00:30N 33°46' W 118°12'0 0.0
2017-Sep-19 00:00N 33°46' W 118°12'1 1.4
2017-Sep-18 23:30N 33°45' W 118°11'4 8.9
2017-Sep-18 23:00N 33°43' W 118°16'2 4.7
2017-Sep-18 22:30N 33°45' W 118°16'2 3.9
2017-Sep-18 22:00N 33°46' W 118°14'2 4.1
2017-Sep-18 21:29N 33°44' W 118°13'1 3.1
2017-Sep-18 21:00N 33°46' W 118°12'3 5.7
2017-Sep-18 20:30N 33°43' W 118°13'3 5.5
2017-Sep-18 20:00N 33°44' W 118°17'0 0.0
2017-Sep-18 19:30N 33°44' W 118°17'4 8.4
2017-Sep-18 19:00N 33°44' W 118°11'2 3.9
2017-Sep-18 18:30N 33°46' W 118°12'0 0.0
2017-Sep-18 01:48N 33°46' W 118°12'1 4.4
2017-Sep-18 01:30N 33°45' W 118°11'713.5
2017-Sep-18 00:59N 33°42' W 118°19'714.3
2017-Sep-18 00:30N 33°45' W 118°26'916.4
2017-Sep-17 23:59N 33°39' W 118°18'4 8.2
2017-Sep-17 23:30N 33°38' W 118°14'714.1
2017-Sep-17 23:00N 33°44' W 118°11'2 2.7
2017-Sep-17 22:25N 33°46' W 118°12'0 1.1
2017-Sep-17 22:00N 33°45' W 118°11'917.1
2017-Sep-17 21:30N 33°37' W 118°09'713.9
2017-Sep-17 20:58N 33°30' W 118°04'3 6.2
2017-Sep-17 20:30N 33°33' W 118°06'5 8.7
2017-Sep-17 19:57N 33°36' W 118°10'817.4
2017-Sep-17 19:30N 33°44' W 118°11'2 3.8
2017-Sep-17 18:59N 33°46' W 118°12'0 0.0
2017-Sep-17 18:30N 33°46' W 118°12'4 7.9
2017-Sep-17 18:00N 33°42' W 118°11'8 3.1
2017-Sep-17 15:34N 33°35' W 118°16'618.2
2017-Sep-17 15:15N 33°40' W 118°13'518.1
2017-Sep-17 14:59N 33°45' W 118°11'1 0.1
2017-Sep-17 02:59N 33°46' W 118°12'0 0.0
2017-Sep-17 02:30N 33°46' W 118°12'0 0.0
2017-Sep-17 02:00N 33°46' W 118°12'3 5.8
2017-Sep-17 01:30N 33°43' W 118°11'1118.2
2017-Sep-17 00:54N 33°32' W 118°09'9 8.6
2017-Sep-16 23:52N 33°37' W 118°18'2 6.0
2017-Sep-16 23:30N 33°40' W 118°18'815.8
2017-Sep-16 23:00N 33°44' W 118°11'2 3.4
2017-Sep-16 22:30N 33°46' W 118°12'0 0.6
2017-Sep-16 22:01N 33°45' W 118°12'713.3
2017-Sep-16 21:30N 33°41' W 118°18'4 3.7
2017-Sep-16 20:30N 33°42' W 118°22'610.9
2017-Sep-16 19:55N 33°38' W 118°16'818.1
2017-Sep-16 19:31N 33°44' W 118°11'2 3.2
2017-Sep-16 19:00N 33°46' W 118°12'0 0.3
2017-Sep-16 18:30N 33°46' W 118°12'610.6
2017-Sep-16 17:58N 33°40' W 118°10'0 0.5
2017-Sep-16 17:30N 33°40' W 118°10'610.4
2017-Sep-16 16:59N 33°46' W 118°12'0 0.4
2017-Sep-16 16:30N 33°46' W 118°12'0 0.0
2017-Sep-15 22:49N 33°46' W 118°12'0 0.0
2017-Sep-15 22:30N 33°46' W 118°12'0 0.0
2017-Sep-15 22:00N 33°46' W 118°12'0 0.0
2017-Sep-15 21:30N 33°46' W 118°12'0 0.0
2017-Sep-15 21:00N 33°46' W 118°12'0 0.0
2017-Sep-15 20:30N 33°46' W 118°12'0 0.0
2017-Sep-15 20:00N 33°46' W 118°12'5 9.2
2017-Sep-15 19:30N 33°41' W 118°11'5 1.4
2017-Sep-15 15:40N 33°37' W 118°15'317.8
2017-Sep-15 15:30N 33°39' W 118°13'612.6
2017-Sep-15 14:59N 33°46' W 118°12'0 0.0
2017-Sep-15 14:30N 33°46' W 118°12'0 0.0
2017-Sep-15 14:01N 33°46' W 118°12'0 0.0
2017-Sep-15 02:46N 33°46' W 118°12'0 0.6
2017-Sep-15 02:29N 33°46' W 118°12'  

Dump ship's entire track history